Location: Ajisawe
(8.4333°N, 4.3833°E)
Time: 21:24:55
(UTC+00:00)

Vanguard 2 Rocket - Pass Details

Date: 21 April 2021
Orbit: 554 x 3326 km, 32.9° (Epoch: 16 May)

Event Time Altitude Azimuth Distance (km) Brightness Sun altitude
Rises 20:33:07 0° 300° (WNW) 6,596 12.2 -39.0°
Reaches altitude 10° 20:38:08 10° 299° (WNW) 5,199 11.4 -40.1°
Enters shadow 20:50:27 62° 256° (WSW) 1,880 8.4 -42.9°
Maximum altitude 20:51:47 68° 219° (SW) 1,722 - -43.2°
Drops below altitude 10° 20:59:17 10° 137° (SE) 2,978 - -44.8°
Sets 21:01:25 0° 134° (SE) 3,688 - -45.3°
